Flag for Faroe Islands Weather past 2 weeks in Tórshavn, Faroe Islands, Faroe Islands

Now
36 °F

Light rain. Passing clouds.


Feels Like: 27 °F
Forecast: N/A
Wind: 13 mph from West

Location: Soervaag / Vagar

Current Time: Mar 27, 2015 at 11:03:56 PM

Latest Report: Mar 27, 2015 at 10:20 PM


Visibility: N/A

Pressure: 29.59 "Hg

Humidity: 87%

Dew point: 32 °F

Location of TórshavnLocation

Historic Weather in Tórshavn — Graph

°F

Tórshavn temperature yesterday

Maximum temperature yesterday: 43 °F (at 1:20 AM)
Minimum temperature yesterday: 37 °F (at 12:50 PM)
Average temperature yesterday: 40 °F

Past Weeks' High & Low Weather Summary

 TemperatureHumidityPressure
High46 °F (Mar 14, 11:20 AM)100% (Mar 15, 9:50 AM)30.48 "Hg (Mar 15, 9:50 AM)
Low30 °F (Mar 24, 6:20 AM)61% (Mar 24, 3:50 PM)29.12 "Hg (Mar 22, 11:20 PM)
Average41 °F85%30.03 "Hg
* Reported Mar 12 10:20 PM — Mar 27 10:20 PM, Tórshavn, Weather by CustomWeather, © 2015

Note: Actual official high and low records may vary slightly from our data, if they occured in-between our weather recording intervals... More about our weather records

Advertising

Tórshavn weather history for previous 24 hours

 ConditionsComfort  
Time TempWeatherWind HumidityBarometerVisibility
10:20 PM
Fri, Mar 27
36 °FLight rain. Passing clouds.13 mph87%29.59 "HgN/A
9:50 PM39 °FPassing clouds.15 mph65%29.59 "HgN/A
9:20 PM39 °FPassing clouds.9 mph65%29.59 "HgN/A
8:50 PM39 °FPassing clouds.15 mph70%29.59 "HgN/A
8:20 PM39 °FPassing clouds.14 mph70%29.59 "HgN/A
7:50 PM39 °FPassing clouds.13 mph75%29.59 "HgN/A
7:20 PM37 °FSprinkles. Passing clouds.17 mph81%29.59 "HgN/A
6:50 PM37 °FSprinkles. Partly sunny.16 mph75%29.59 "HgN/A
6:20 PM37 °FPartly sunny.14 mph81%29.56 "HgN/A
5:50 PM39 °FSprinkles. Partly sunny.16 mph75%29.56 "HgN/A
5:20 PM37 °FPartly sunny.20 mph87%29.56 "HgN/A
4:50 PM39 °FPartly sunny.3 mph81%29.56 "HgN/A
4:20 PM37 °FSprinkles. Partly sunny.15 mph81%29.56 "HgN/A
3:50 PM41 °FPartly sunny.14 mph70%29.53 "HgN/A
3:20 PM43 °FPartly sunny.12 mph66%29.53 "HgN/A
2:50 PM41 °FSprinkles. Partly sunny.12 mph76%29.53 "HgN/A
2:20 PM41 °FPartly sunny.14 mph81%29.53 "HgN/A
1:50 PM41 °FSprinkles. Partly sunny.17 mph76%29.53 "HgN/A
1:20 PM41 °FBroken clouds.12 mph81%29.56 "HgN/A
12:50 PM41 °FSprinkles. Partly sunny.17 mph81%29.56 "HgN/A
12:20 PM41 °FPartly sunny.20 mph87%29.53 "HgN/A
11:50 AM41 °FSprinkles. Partly sunny.13 mph87%29.56 "HgN/A
11:20 AM39 °FSprinkles. Partly sunny.14 mph87%29.56 "HgN/A
10:50 AM39 °FLight rain. Partly sunny.20 mph87%29.56 "HgN/A
10:20 AM39 °FPartly sunny.17 mph87%29.59 "HgN/A
9:50 AM39 °FPartly sunny.18 mph87%29.59 "HgN/A
9:20 AM39 °FSprinkles. Partly sunny.17 mph81%29.59 "HgN/A
8:50 AM39 °FSprinkles. Partly sunny.17 mph87%29.59 "HgN/A
8:20 AM39 °FSprinkles. Partly sunny.16 mph81%29.59 "HgN/A
7:50 AM41 °FBroken clouds.16 mph70%29.62 "HgN/A
7:20 AM39 °FPartly sunny.17 mph75%29.62 "HgN/A
6:50 AM39 °FPartly sunny.12 mph75%29.62 "HgN/A
6:20 AM37 °FPartly sunny.7 mph81%29.65 "HgN/A
5:50 AM37 °FSprinkles. Passing clouds.9 mph81%29.65 "HgN/A
5:20 AM36 °FPartly cloudy.6 mph87%29.65 "HgN/A
4:50 AM36 °FPartly cloudy.5 mph81%29.65 "HgN/A
4:20 AM36 °FPassing clouds.7 mph81%29.65 "HgN/A
3:20 AM36 °FPassing clouds.2 mph81%29.68 "HgN/A
2:50 AM36 °FPassing clouds.7 mph81%29.68 "HgN/A
2:20 AM39 °FPassing clouds.6 mph70%29.68 "HgN/A
1:50 AM37 °FPassing clouds.8 mph75%29.68 "HgN/A
1:20 AM37 °FPassing clouds.9 mph70%29.68 "HgN/A
12:50 AM37 °FPassing clouds.8 mph70%29.68 "HgN/A
12:20 AM37 °FPassing clouds.12 mph75%29.68 "HgN/A
11:50 PM
Thu, Mar 26
37 °FPassing clouds.12 mph75%29.65 "HgN/A
11:20 PM37 °FChilly.14 mph65%29.65 "HgN/A
Weather by CustomWeather, © 2015

See weather overviewHow to use our weather pages